Regional Weather Roundup
Issued by NWS Goodland, KS

Home | Current Version | Previous Version | Graphics & Text | Print | Product List | Glossary On
Versions: 1 2 3 4 5 6 7 8 9 10 11 12 13 14 15 16 17 18 19 20 21 22 23 24 25 26 27 28 29 30 31 32 33 34 35 36 37 38 39 40 41 42 43 44 45 46 47 48 49 50
000
ASUS43 KGLD 300408
RWRGLD

GOODLAND FORECAST AREA HOURLY WEATHER ROUNDUP
NATIONAL WEATHER SERVICE GOODLAND KS
1000 PM MDT MON AUG 29 2016

...OFFICIAL OBSERVATIONS...

CITY           SKY/WX    TMP DP  RH WIND       PRES   REMARKS
GOODLAND KS    PTCLDY    66  61  84 SE5       30.27S
HILL CITY KS   CLOUDY    68  66  93 CALM      30.22S
IMPERIAL NEB   CLOUDY    68  62  81 SE5       30.25S
MCCOOK NEB     CLOUDY    71  66  84 S5        30.24R
AKRON CO       CLEAR     65  51  60 SW7       30.30S
BURLINGTON CO  CLEAR     63  58  83 SE8       30.30R
LIMON CO       CLOUDY    58  50  75 NW5       30.36S
$$

...UNOFFICIAL OBSERVATIONS...

CITY           SKY/WX    TMP DP  RH WIND       PRES   REMARKS
COLBY KS       CLOUDY    66  64  94 CALM      30.27S
LENORA KS        N/A     69  32  25 MISG        N/A
NORTON KS      CLEAR     68  64  88 NW3       30.22F
SHARON SPRINGS   N/A     67  63  87 S6          N/A
TRIBUNE KS     CLOUDY    68  64  88 CALM      30.29R
TRENTON NEB      N/A     68  32  26 MISG        N/A
KIT CARSON CO    N/A     66  56  70 CALM        N/A
YUMA CO          N/A     62  57  83 CALM        N/A
$$




USA.gov is the U.S. government's official web portal to all federal, state and local government web resources and services.